Regional Weather Roundup
Issued by NWS Cleveland, OH

Home | Current Version | Previous Version | Text Only | Print | Product List | Glossary Off
Versions: 1 2 3 4 5 6 7 8 9 10 11 12 13 14 15 16 17 18 19 20 21 22 23 24 25 26 27 28 29 30 31 32 33 34 35 36 37 38 39 40 41 42 43 44 45 46 47 48 49 50

000
ASUS41 KCLE 251210
RWRCLE
OHIO REGIONAL WEATHER ROUNDUP
NATIONAL WEATHER SERVICE CLEVELAND, OH
700 AM EST SUN JAN 25 2015

NOTE: "FAIR" INDICATES FEW OR NO CLOUDS BELOW 12,000 FEET WITH NO
SIGNIFICANT WEATHER AND/OR OBSTRUCTIONS TO VISIBILITY.

OHZ001>008-015>018-024>027-034-035-043-044-251300-
   NORTHWEST OHIO

CITY           SKY/WX    TMP DP  RH WIND       PRES   REMARKS
DEFIANCE       CLOUDY    35  32  88 CALM      29.73S
FINDLAY        CLOUDY    35  31  85 S3        29.72S
TOLEDO EXPRESS CLOUDY    34  32  92 NE3       29.74R FOG
TOLEDO EXEC    CLOUDY    35  31  85 NE3       29.76R
LIMA           CLOUDY    35  30  82 CALM      29.71R
$$

OHZ009>014-019>023-028>033-038-089-251300-
   NORTHEAST OHIO

CITY           SKY/WX    TMP DP  RH WIND       PRES   REMARKS
CLE-HOPKINS    CLOUDY    32  30  92 N15       29.78R FOG     WCI  22
CLE-LAKEFRONT  FLURRIES  31  28  89 NE14      29.77R WCI  21
CUY CO. ARPT   CLOUDY    30  30 100 NE14      29.76  WCI  20
LORAIN-ELYRIA  CLOUDY    34  32  92 CALM      29.75R
ASHTABULA      LGT SNOW  28  25  88 N5        29.78R FOG     WCI  23
AKRON-CANTON   CLOUDY    34  31  88 SW6       29.74R FOG     WCI  29
WOOSTER        CLOUDY    33  30  88 SW6       29.74R WCI  28
MANSFIELD      CLOUDY    34  32  92 S7        29.73R WCI  28
YOUNGSTOWN     LGT SNOW  33  32  96 W3        29.73R VSB 3/4
$$

OHZ042-051>053-060>062-070>072-077>081-251300-
  SOUTHWEST OHIO

CITY           SKY/WX    TMP DP  RH WIND       PRES   REMARKS
CINC-COVINGTON CLOUDY    37  30  75 S8        29.71F
CINC-LUNKEN    CLOUDY    31  30  96 SW3       29.75S
HAMILTON       CLOUDY    33  30  88 E3        29.74S
DAYTON         CLOUDY    34  30  85 S6        29.72S FOG     WCI  29
WRIGHT-PAT AFB MOCLDY    32  29  89 SE3       29.73S
DAYTON GENERAL CLOUDY    33  30  88 S7        29.71S WCI  27
WILMINGTON     MOCLDY    32  28  85 S7        29.72F WCI  26
$$

OHZ036-037-039>041-045>050-054>059-063>069-073>076-082>088-251300-
  CENTRAL AND SOUTHEAST OHIO

CITY           SKY/WX    TMP DP  RH WIND       PRES   REMARKS
COLUMBUS       CLOUDY    34  29  82 S3        29.74S
OSU AIRPORT    CLOUDY    34  30  85 S5        29.74R WCI  30
BOLTON FIELD   NOT AVBL
RICKENBACK AFB CLOUDY    32  30  91 S6        29.75S WCI  27
NEWARK         MOCLDY    34  30  85 S3        29.75R
MARION         CLOUDY    33  29  85 S5        29.73R FOG     WCI  29
LANCASTER      CLOUDY    36  31  82 S3        29.75S
ZANESVILLE     MOCLDY    31  29  92 S5        29.76R FOG     WCI  26
NEW PHILLY     CLOUDY    35  30  82 SE3       29.77R
$$


USA.gov is the U.S. government's official web portal to all federal, state and local government web resources and services.